Location: Schommer Observatory
(40.5200°N, 74.4500°W)
Time: 06:07:24
(UTC-04:00)

Tiangong 2 - Pass Details

Date: 18 May 2018
Orbit: 382 x 385 km, 42.8° (Epoch: 26 May)

Event Time Altitude Azimuth Distance (km) Brightness Sun altitude
Exits shadow 04:42:59 - 273° (W) 1,442 3.5 -9.8°
Reaches altitude 10° 04:43:06 10° 272° (W) 1,398 3.4 -9.8°
Maximum altitude 04:45:55 30° 209° (SSW) 719 1.9 -9.4°
Drops below altitude 10° 04:48:43 10° 146° (SE) 1,394 3.9 -8.9°
Sets 04:50:55 0° 135° (SE) 2,244 5.1 -8.6°
